Regional Weather Roundup
Issued by NWS

Home | Current Version | Previous Version | Graphics & Text | Print | Product List | Glossary On
Versions: 1 2 3 4 5 6 7 8 9 10 11 12 13 14 15 16 17 18 19 20 21 22 23 24 25 26 27 28 29 30 31 32 33 34 35 36 37 38 39 40 41 42 43 44 45 46 47 48 49 50
000
ASUS43 KMPX 030410
RWRMN
WEATHER ROUNDUP FOR MINNESOTA
NATIONAL WEATHER SERVICE TWIN CITIES/CHANHASSEN MN
1100 PM CDT WED SEP 02 2015


NOTE: "FAIR" INDICATES FEW OR NO CLOUDS BELOW 12,000 FEET WITH NO
SIGNIFICANT WEATHER AND/OR OBSTRUCTIONS TO VISIBILITY. N/A MEANS
CURRENT SKY AND/OR WEATHER CONDITIONS ARE NOT AVAILABLE.

MNZ060>063-068>070-030500-
   Twin Cities Metro

CITY           SKY/WX    TMP DP  RH WIND       PRES   REMARKS
TWIN CITIES    MOCLDY    70  67  90 NE7       29.91R
ST PAUL        CLOUDY    70  67  90 E6        29.91R
CRYSTAL        CLEAR     70  67  90 E3        29.90R
BLAINE         MOCLDY    70  70 100 E6        29.91S
LAKEVILLE      PTCLDY    66  66 100 CALM      29.91R FOG
EDEN PRAIRIE   PTCLDY    72  69  90 E6        29.89R
SOUTH ST PAUL  CLEAR     71  68  90 NE5       29.91R
LAKE ELMO      FAIR      68  66  94 E7        29.92S
$$
MNZ001>005-007-008-013>017-022>024-027-028-030500-
   Northwest Minnesota

CITY           SKY/WX    TMP DP  RH WIND       PRES   REMARKS
BEMIDJI        CLEAR     68  65  90 SE7       29.92R
HALLOCK        CLEAR     73  64  73 SE12      29.80S
ROSEAU         CLEAR     72  64  78 SE8       29.86S
WARROAD        CLEAR     70  66  88 SE7       29.88S
THIEF RVR FALL CLEAR     72  66  83 SE10      29.86S
CROOKSTON      CLEAR     72  66  83 SE9       29.84S
FOSSTON        CLEAR     70  63  78 SE8       29.88F
DETROIT LAKES  CLEAR     70  66  88 SE13      29.90S
MOORHEAD       CLEAR     73  68  83 SE8       29.84S
PARK RAPIDS    MOCLDY    70  64  81 SE9       29.92S
MAHNOMEN       FAIR      70  67  89 SE7       29.87S
$$
MNZ006-009>011-018-025>026-030500-
   North Central Minnesota

CITY           SKY/WX    TMP DP  RH WIND       PRES   REMARKS
BAUDETTE       CLEAR     68  61  78 SE8       29.89S
FLAG ISLAND    CLEAR     73  64  73 SE13      29.86S
INTL FALLS     CLEAR     65  63  93 SE6       29.93S
WASKISH        CLEAR     66  63  88 CALM      29.91S
BIG FORK       CLEAR     68  64  88 CALM      29.95S
LONGVILLE      CLEAR     63  63 100 CALM      29.94S
GRAND RAPIDS     N/A     64  61  88 SE3       29.95S
CRANE LAKE     CLEAR     57  57 100 CALM      29.98R
ORR            CLEAR     63  61  94 CALM      29.94R
COOK           CLEAR     61  61 100 CALM      29.97R
WALKER         FAIR      67  64  90 SE6       29.93R
$$
MNZ012-019>021-037-030500-
   Northeast Minnesota

CITY           SKY/WX    TMP DP  RH WIND       PRES   REMARKS
DULUTH         PTCLDY    61  59  93 E8        29.98R
ELY            CLEAR     63  59  88 SE3       29.98S
HIBBING        CLEAR     63  62  97 SE5       29.96S
EVELETH        FOG       59  59 100 CALM      29.98S VSB 1/2
DULUTH HARBOR  CLOUDY    61  57  88 NE9       29.97S
TWO HARBORS    MOCLDY    63  57  82 NE3       29.97R
SILVER BAY     MOCLDY    61  59  94 NE3       29.97S
GRAND MARAIS     N/A     60  56  86 NE5       29.98S
G MARAIS ARPRT CLEAR     55  52  88 CALM      30.03S
$$
MNZ029>031-032-039>041-046>048-054>057-064-030500-
   West Central Minnesota

CITY           SKY/WX    TMP DP  RH WIND       PRES   REMARKS
FERGUS FALLS   CLEAR     73  66  78 E9        29.85S
WHEATON        PTCLDY    70  68  94 E8        29.85S FOG
MORRIS         PTCLDY    72  70  94 E8        29.85S FOG
ALEXANDRIA     MOCLDY    70  68  93 E10       29.91R FOG
ELBOW LAKE     FAIR      71  69  93 E12       29.86S
WADENA         CLEAR     66  64  94 E6        29.91S
GLENWOOD       MOCLDY    70  68  94 E13       29.90S FOG
APPLETON       PTCLDY    73  70  88 E12       29.85R FOG
BENSON         PTCLDY    72  68  88 SE6       29.86S
ORTONVILLE     PTCLDY    73  70  88 SE10      29.84R
MADISON        CLEAR     73  72  94 SE7       29.85R FOG
WILLMAR        FAIR      72  70  94 E10       29.90R FOG
$$
MNZ033>034-036-042>043-049>051-058-059-030500-
   Central Minnesota

CITY           SKY/WX    TMP DP  RH WIND       PRES   REMARKS
ST CLOUD       PTCLDY    68  67  96 E6        29.91S
SAUK CENTRE    CLOUDY    70  68  95 E8        29.91R FOG
PAYNESVILLE    CLOUDY    70  69  96 NE10      29.91S FOG
AITKIN           N/A     63  55  77 CALM      29.94S HAZE
PINE RIVER     PTCLDY    63  63 100 CALM      29.97S FOG
BRAINERD       PTCLDY    66  64  93 CALM      29.94S
STAPLES        CLOUDY    70  64  83 E5        29.92S
LONG PRAIRIE   CLOUDY    68  68 100 E5        29.92R
LITTLE FALLS   PTCLDY    68  64  88 CALM      29.93R
LITCHFIELD     PTCLDY    70  70 100 E8        29.91R
BUFFALO        PTCLDY    68  65  90 NE3       29.92R
MAPLE LAKE     PTCLDY    69  67  94 E7        29.92S
$$
MNZ037-044-045-052-053-030500-
   East Central Minnesota

CITY           SKY/WX    TMP DP  RH WIND       PRES   REMARKS
PRINCETON      PTCLDY    70  66  88 E6        29.92S
MORA           MOCLDY    68  64  88 CALM      29.95S
CAMBRIDGE      PTCLDY    70  63  78 CALM      29.91S
RUSH CITY      PTCLDY    69  66  92 CALM      29.93S
MOOSE LAKE     CLOUDY    63  61  94 CALM      29.95R
HINCKLEY       CLOUDY    68  66  94 CALM      29.95R
CLOQUET        CLOUDY    63  61  94 E5        29.97S
MCGREGOR       CLEAR     63  63 100 E3        29.96R
$$
MNZ071>073-080-081-089-090-097-098-030500-
   Southwest Minnesota

CITY           SKY/WX    TMP DP  RH WIND       PRES   REMARKS
MONTEVIDEO     CLEAR     72  72 100 SE7       29.88R FOG
GRANITE FALLS  CLEAR     73  72  96 E6        29.87S FOG
CANBY          CLEAR     73  71  93 SE5       29.86S FOG
MARSHALL       CLEAR     73  68  83 SE7       29.87S
REDWOOD FALLS  PTCLDY    74  72  93 E6        29.86S FOG
OLIVIA         PTCLDY    70  66  88 E8        29.88R
PIPESTONE      CLEAR     73  70  88 SE5       29.88S
WINDOM         CLEAR     73  70  88 CALM      29.89S
WORTHINGTON    CLEAR     72  66  83 SE5       29.89S
JACKSON        CLEAR     73  70  88 S5        29.90S
TRACY          CLEAR     75  73  91 S6        29.87F
SLAYTON        CLEAR     71  70  99 CALM      29.89F
$$
MNZ065>067-074>077-082>085-091>093-030500-
   South Central Minnesota

CITY           SKY/WX    TMP DP  RH WIND       PRES   REMARKS
MANKATO        PTCLDY    73  70  88 SE7       29.89R
NEW ULM        CLEAR     73  72  94 CALM      29.88R
ST JAMES       CLEAR     72  70  94 SE3       29.89R
FAIRMONT       CLEAR     72  64  78 S5        29.89R
GLENCOE        PTCLDY    71  70  98 E3        29.90R FOG
FARIBAULT      FOG       70  70 100 CALM      29.91R VSB 1
OWATONNA       PTCLDY    73  70  88 SE6       29.90S
WASECA         PTCLDY    72  70  94 E3        29.91S
ALBERT LEA     CLEAR     73  72  94 CALM      29.91R
$$
MNZ078>079-086>088-094>096-030500-
   Southeast Minnesota

CITY           SKY/WX    TMP DP  RH WIND       PRES   REMARKS
ROCHESTER      PTCLDY    71  69  93 S7        29.92S
RED WING       PTCLDY    72  70  94 E6        29.90S
STANTON        PTCLDY    71  68  92 CALM      29.89S FOG
DODGE CENTER   PTCLDY    72  70  94 S3        29.92S
WINONA         MOCLDY    73  70  88 CALM      29.91R
AUSTIN         PTCLDY    73  70  88 CALM      29.92R
PRESTON        CLEAR     72  68  88 S3        29.93S
$$
ABBREVIATIONS USED IN REMARKS
   TC - TEMPERATURES IN CELSIUS
  WCI - WIND CHILL INDEX
   HX - HEAT INDEX
  VSB - VISIBILITY
$$



USA.gov is the U.S. government's official web portal to all federal, state and local government web resources and services.